Location: *
(45.9500°N, 9.0833°E)
Time: 19:32:59
(UTC+00:00)

USA 306 - Pass Details

Date: 03 March 2021
Orbit: 564 x 577 km, 54.0° (Epoch: 22 April)

Event Time Altitude Azimuth Distance (km) Brightness Sun altitude
Rises 18:18:59 0° 282° (WNW) 2,786 8.4 -12.2°
Reaches altitude 10° 18:21:30 10° 294° (WNW) 1,886 6.8 -12.7°
Maximum altitude 18:25:13 28° 355° (N) 1,094 4.4 -13.3°
Enters shadow 18:28:20 13° 50° (NE) 1,683 4.9 -13.9°
